,,,PA_Meas_PMT16A,,PR_Meas_QMR101_102,,RH_Meas_QMH101,,SR_Meas_QMS101,,TA_Meas_QMH101,,GenWind,,GenWind,
date,time,status,PA,status,PR,status,RH,status,SR,status,TA,status,DirAvg,status,SpdAvg,
2012-03-04, 00:00:04,VALID,1009.74,VALID,0,VALID,104,VALID,0,VALID,23.5558,VALID,336,VALID,1.36406,
2012-03-04, 00:01:04,VALID,1009.72,VALID,0,VALID,104,VALID,0.112112,VALID,23.5363,VALID,38,VALID,0.853516,
2012-03-04, 00:02:04,VALID,1009.72,VALID,0,VALID,104,VALID,0.112112,VALID,23.5363,VALID,39,VALID,0.571875,
2012-03-04, 00:03:04,VALID,1009.68,VALID,0,VALID,104,VALID,0,VALID,23.5381,VALID,40,VALID,0.458984,
2012-03-04, 00:04:04,VALID,1009.68,VALID,0,VALID,104,VALID,0.112112,VALID,23.5363,VALID,33,VALID,0.548047,
2012-03-04, 00:05:04,VALID,1009.64,VALID,0,VALID,104,VALID,0,VALID,23.5381,VALID,36,VALID,0.959375,
2012-03-04, 00:06:04,VALID,1009.63,VALID,0,VALID,104,VALID,0.112112,VALID,23.5186,VALID,322,VALID,0.549219,
2012-03-04, 00:07:04,VALID,1009.61,VALID,0,VALID,104,VALID,0,VALID,23.4779,VALID,340,VALID,0.612109,
2012-03-04, 00:08:04,VALID,1009.59,VALID,0,VALID,104,VALID,0,VALID,23.4974,VALID,342,VALID,0.564453,
2012-03-04, 00:09:04,VALID,1009.56,VALID,0,VALID,104,VALID,0,VALID,23.5186,VALID,354,VALID,0.805078,
2012-03-04, 00:10:04,VALID,1009.57,VALID,0,VALID,104,VALID,0.112112,VALID,23.4779,VALID,59,VALID,0.740234,
2012-03-04, 00:11:04,VALID,1009.53,VALID,0,VALID,104,VALID,0,VALID,23.4779,VALID,38,VALID,0.523438,
2012-03-04, 00:12:04,VALID,1009.51,VALID,0,VALID,104,VALID,0.112112,VALID,23.4992,VALID,340,VALID,0.998438,
2012-03-04, 00:13:04,VALID,1009.53,VALID,0,VALID,104,VALID,0.112112,VALID,23.4779,VALID,359,VALID,0.36875,
2012-03-04, 00:14:04,VALID,1009.49,VALID,0,VALID,104,VALID,0.112112,VALID,23.4584,VALID,348,VALID,0.325781,
2012-03-04, 00:15:04,VALID,1009.48,VALID,0,VALID,104,VALID,0.112112,VALID,23.4602,VALID,2,VALID,0.8875,
2012-03-04, 00:16:04,VALID,1009.46,VALID,0,VALID,104,VALID,0,VALID,23.4602,VALID,25,VALID,0.917188,
2012-03-04, 00:17:04,VALID,1009.46,VALID,0,VALID,104,VALID,0.112112,VALID,23.4584,VALID,21,VALID,0.569922,
2012-03-04, 00:18:04,VALID,1009.44,VALID,0,VALID,104,VALID,0.112112,VALID,23.4584,VALID,3,VALID,0.0742188,
2012-03-04, 00:19:04,VALID,1009.39,VALID,0,VALID,104,VALID,0,VALID,23.4407,VALID,354,VALID,1.18398,
2012-03-04, 00:20:04,VALID,1009.38,VALID,0,VALID,104,VALID,0,VALID,23.462,VALID,6,VALID,0.160156,
2012-03-04, 00:21:04,VALID,1009.37,VALID,0,VALID,104,VALID,0,VALID,23.4602,VALID,6,VALID,0.096875,
2012-03-04, 00:22:04,VALID,1009.38,VALID,0,VALID,104,VALID,0,VALID,23.4425,VALID,4,VALID,0.645703,
2012-03-04, 00:23:04,VALID,1009.35,VALID,0,VALID,104,VALID,0,VALID,23.4407,VALID,17,VALID,0.294922,
2012-03-04, 00:24:04,VALID,1009.36,VALID,0,VALID,104,VALID,0,VALID,23.4212,VALID,17,VALID,0,
2012-03-04, 00:25:04,VALID,1009.33,VALID,0,VALID,104,VALID,0,VALID,23.423,VALID,17,VALID,0,
2012-03-04, 00:26:04,VALID,1009.34,VALID,0,VALID,104,VALID,0,VALID,23.423,VALID,354,VALID,0.683203,
2012-03-04, 00:27:04,VALID,1009.29,VALID,0,VALID,104,VALID,0,VALID,23.3823,VALID,48,VALID,1.13242,
2012-03-04, 00:28:04,VALID,1009.32,VALID,0,VALID,104,VALID,0,VALID,23.4035,VALID,42,VALID,0.666406,
2012-03-04, 00:29:04,VALID,1009.31,VALID,0,VALID,104,VALID,0,VALID,23.4017,VALID,32,VALID,0.388281,
2012-03-04, 00:30:04,VALID,1009.31,VALID,0,VALID,104,VALID,0,VALID,23.3823,VALID,358,VALID,1.19062,
2012-03-04, 00:31:04,VALID,1009.3,VALID,0,VALID,104,VALID,0,VALID,23.3823,VALID,3,VALID,0.398828,
2012-03-04, 00:32:04,VALID,1009.29,VALID,0,VALID,104,VALID,0,VALID,23.3628,VALID,356,VALID,0.396484,
2012-03-04, 00:33:04,VALID,1009.25,VALID,0,VALID,104,VALID,0,VALID,23.3628,VALID,352,VALID,0.890234,
2012-03-04, 00:34:04,VALID,1009.26,VALID,0,VALID,104,VALID,0,VALID,23.3645,VALID,8,VALID,0.888281,
2012-03-04, 00:35:04,VALID,1009.25,VALID,0,VALID,104,VALID,0,VALID,23.3433,VALID,351,VALID,0.314844,
2012-03-04, 00:36:04,VALID,1009.22,VALID,0,VALID,104,VALID,0,VALID,23.3433,VALID,347,VALID,0.771875,
2012-03-04, 00:37:04,VALID,1009.18,VALID,0,VALID,104,VALID,0,VALID,23.3433,VALID,25,VALID,1.59531,
2012-03-04, 00:38:04,VALID,1009.17,VALID,0,VALID,104,VALID,0,VALID,23.3451,VALID,3,VALID,0.337891,
2012-03-04, 00:39:04,VALID,1009.19,VALID,0,VALID,104,VALID,0.112112,VALID,23.322,VALID,17,VALID,0.683594,
2012-03-04, 00:40:04,VALID,1009.19,VALID,0,VALID,104,VALID,0,VALID,23.3026,VALID,347,VALID,1.04492,
2012-03-04, 00:41:04,VALID,1009.18,VALID,0,VALID,104,VALID,0,VALID,23.3026,VALID,355,VALID,0.728516,
2012-03-04, 00:42:04,VALID,1009.2,VALID,0,VALID,104,VALID,0.112112,VALID,23.3026,VALID,312,VALID,0.29375,
2012-03-04, 00:43:04,VALID,1009.19,VALID,0,VALID,104,VALID,0.112112,VALID,23.2831,VALID,12,VALID,0.773047,
2012-03-04, 00:44:04,VALID,1009.2,VALID,0,VALID,104,VALID,0.112112,VALID,23.2831,VALID,7,VALID,0.144531,
2012-03-04, 00:45:04,VALID,1009.2,VALID,0,VALID,104,VALID,0.112112,VALID,23.2831,VALID,49,VALID,0.994531,
2012-03-04, 00:46:04,VALID,1009.23,VALID,0,VALID,104,VALID,0,VALID,23.2636,VALID,49,VALID,1.05273,
2012-03-04, 00:47:04,VALID,1009.21,VALID,0,VALID,104,VALID,0,VALID,23.2636,VALID,57,VALID,1.10977,
2012-03-04, 00:48:04,VALID,1009.22,VALID,0,VALID,104,VALID,0.112112,VALID,23.2636,VALID,55,VALID,0.683203,
2012-03-04, 00:49:04,VALID,1009.21,VALID,0,VALID,104,VALID,0.112112,VALID,23.2636,VALID,58,VALID,0.4625,
2012-03-04, 00:50:04,VALID,1009.21,VALID,0,VALID,104,VALID,0,VALID,23.2654,VALID,50,VALID,1.22187,
2012-03-04, 00:51:04,VALID,1009.24,VALID,0,VALID,104,VALID,0,VALID,23.2654,VALID,30,VALID,0.682422,
2012-03-04, 00:52:04,VALID,1009.21,VALID,0,VALID,104,VALID,0,VALID,23.2654,VALID,54,VALID,1.1543,
2012-03-04, 00:53:04,VALID,1009.21,VALID,0,VALID,104,VALID,0,VALID,23.2459,VALID,349,VALID,1.33359,
2012-03-04, 00:54:04,VALID,1009.21,VALID,0,VALID,104,VALID,0,VALID,23.2671,VALID,38,VALID,0.289063,
2012-03-04, 00:55:04,VALID,1009.21,VALID,0,VALID,104,VALID,0,VALID,23.2264,VALID,46,VALID,1.03437,
2012-03-04, 00:56:04,VALID,1009.2,VALID,0,VALID,104,VALID,0,VALID,23.2476,VALID,15,VALID,1.20586,
2012-03-04, 00:57:04,VALID,1009.18,VALID,0,VALID,104,VALID,0,VALID,23.2459,VALID,55,VALID,1.13203,
2012-03-04, 00:58:04,VALID,1009.22,VALID,0,VALID,104,VALID,0,VALID,23.2264,VALID,20,VALID,0.898438,
2012-03-04, 00:59:04,VALID,1009.21,VALID,0,VALID,104,VALID,0,VALID,23.2069,VALID,346,VALID,0.591797,
2012-03-04, 01:00:04,VALID,1009.18,VALID,0,VALID,104,VALID,0,VALID,23.2264,VALID,23,VALID,0.698047,
2012-03-04, 01:01:04,VALID,1009.17,VALID,0,VALID,104,VALID,0,VALID,23.2264,VALID,11,VALID,0.558203,
2012-03-04, 01:02:04,VALID,1009.17,VALID,0,VALID,104,VALID,0,VALID,23.2069,VALID,27,VALID,0.611328,
2012-03-04, 01:03:04,VALID,1009.19,VALID,0,VALID,104,VALID,0,VALID,23.2069,VALID,34,VALID,0.421094,
2012-03-04, 01:04:04,VALID,1009.21,VALID,0,VALID,104,VALID,0,VALID,23.2069,VALID,37,VALID,0.539453,
2012-03-04, 01:05:04,VALID,1009.17,VALID,0,VALID,104,VALID,0,VALID,23.2282,VALID,358,VALID,0.733594,
2012-03-04, 01:06:04,VALID,1009.17,VALID,0,VALID,104,VALID,0,VALID,23.1874,VALID,41,VALID,0.961719,
2012-03-04, 01:07:04,VALID,1009.15,VALID,0,VALID,104,VALID,0,VALID,23.1874,VALID,276,VALID,0.794141,
2012-03-04, 01:08:04,VALID,1009.17,VALID,0,VALID,104,VALID,0,VALID,23.1874,VALID,1,VALID,0.849219,
2012-03-04, 01:09:04,VALID,1009.17,VALID,0,VALID,104,VALID,0,VALID,23.1485,VALID,55,VALID,1.43164,
2012-03-04, 01:10:04,VALID,1009.15,VALID,0,VALID,104,VALID,0,VALID,23.1697,VALID,27,VALID,0.757813,
2012-03-04, 01:11:04,VALID,1009.15,VALID,0,VALID,104,VALID,0,VALID,23.1485,VALID,8,VALID,0.702734,
2012-03-04, 01:12:04,VALID,1009.17,VALID,0,VALID,104,VALID,0,VALID,23.129,VALID,4,VALID,1.28125,
2012-03-04, 01:13:04,VALID,1009.17,VALID,0,VALID,104,VALID,0,VALID,23.1485,VALID,356,VALID,0.415234,
2012-03-04, 01:14:04,VALID,1009.14,VALID,0,VALID,104,VALID,0,VALID,23.129,VALID,58,VALID,1.20859,
2012-03-04, 01:15:04,VALID,1009.16,VALID,0,VALID,104,VALID,0,VALID,23.1502,VALID,358,VALID,0.656641,
2012-03-04, 01:16:04,VALID,1009.19,VALID,0,VALID,104,VALID,0,VALID,23.1502,VALID,18,VALID,1.05781,
2012-03-04, 01:17:04,VALID,1009.2,VALID,0,VALID,104,VALID,0,VALID,23.129,VALID,17,VALID,0.682422,
2012-03-04, 01:18:04,VALID,1009.19,VALID,0,VALID,104,VALID,0,VALID,23.129,VALID,331,VALID,0.441016,
2012-03-04, 01:19:04,VALID,1009.21,VALID,0,VALID,104,VALID,0,VALID,23.1307,VALID,334,VALID,1.38086,
2012-03-04, 01:20:04,VALID,1009.22,VALID,0,VALID,104,VALID,0,VALID,23.129,VALID,353,VALID,0.771484,
2012-03-04, 01:21:04,VALID,1009.24,VALID,0,VALID,104,VALID,0,VALID,23.129,VALID,350,VALID,1.25,
2012-03-04, 01:22:04,VALID,1009.25,VALID,0,VALID,104,VALID,0,VALID,23.1307,VALID,30,VALID,1.16523,
2012-03-04, 01:23:04,VALID,1009.24,VALID,0,VALID,104,VALID,0,VALID,23.1307,VALID,30,VALID,0.0527344,
2012-03-04, 01:24:04,VALID,1009.26,VALID,0,VALID,104,VALID,0,VALID,23.1112,VALID,30,VALID,0.538281,
2012-03-04, 01:25:04,VALID,1009.25,VALID,0,VALID,104,VALID,0,VALID,23.0918,VALID,345,VALID,1.52188,
2012-03-04, 01:26:04,VALID,1009.27,VALID,0,VALID,104,VALID,0,VALID,23.09,VALID,21,VALID,0.798828,
2012-03-04, 01:27:04,VALID,1009.23,VALID,0,VALID,104,VALID,0,VALID,23.09,VALID,65,VALID,1.02344,
2012-03-04, 01:28:04,VALID,1009.25,VALID,0,VALID,104,VALID,0,VALID,23.0705,VALID,354,VALID,1.40859,
2012-03-04, 01:29:04,VALID,1009.27,VALID,0,VALID,104,VALID,0,VALID,23.0918,VALID,351,VALID,0.709375,
2012-03-04, 01:30:04,VALID,1009.28,VALID,0,VALID,104,VALID,0,VALID,23.09,VALID,353,VALID,0.5375,
2012-03-04, 01:31:04,VALID,1009.27,VALID,0,VALID,104,VALID,0,VALID,23.09,VALID,355,VALID,1.06445,
2012-03-04, 01:32:04,VALID,1009.25,VALID,0,VALID,104,VALID,0,VALID,23.0705,VALID,3,VALID,1.29531,
2012-03-04, 01:33:04,VALID,1009.27,VALID,0,VALID,104,VALID,0,VALID,23.0705,VALID,324,VALID,0.579297,
2012-03-04, 01:34:04,VALID,1009.28,VALID,0,VALID,104,VALID,0,VALID,23.0705,VALID,36,VALID,0.852344,
2012-03-04, 01:35:04,VALID,1009.25,VALID,0,VALID,104,VALID,0,VALID,23.09,VALID,32,VALID,0.870703,
2012-03-04, 01:36:04,VALID,1009.27,VALID,0,VALID,104,VALID,0,VALID,23.0705,VALID,41,VALID,0.621094,
2012-03-04, 01:37:04,VALID,1009.29,VALID,0,VALID,104,VALID,0,VALID,23.09,VALID,330,VALID,0.561719,
2012-03-04, 01:38:04,VALID,1009.27,VALID,0,VALID,104,VALID,0,VALID,23.0918,VALID,10,VALID,1.10469,
2012-03-04, 01:39:04,VALID,1009.28,VALID,0,VALID,104,VALID,0,VALID,23.0918,VALID,349,VALID,0.702734,
2012-03-04, 01:40:04,VALID,1009.26,VALID,0,VALID,104,VALID,0,VALID,23.09,VALID,40,VALID,1.31211,
2012-03-04, 01:41:04,VALID,1009.29,VALID,0,VALID,104,VALID,0,VALID,23.1112,VALID,352,VALID,1.10977,
2012-03-04, 01:42:04,VALID,1009.24,VALID,0,VALID,104,VALID,0,VALID,23.0705,VALID,355,VALID,0.311719,
2012-03-04, 01:43:04,VALID,1009.23,VALID,0,VALID,104,VALID,0,VALID,23.1112,VALID,349,VALID,0.915234,
2012-03-04, 01:44:04,VALID,1009.23,VALID,0,VALID,104,VALID,0,VALID,23.0918,VALID,16,VALID,0.822656,
2012-03-04, 01:45:04,VALID,1009.22,VALID,0,VALID,104,VALID,0,VALID,23.09,VALID,348,VALID,0.804297,
2012-03-04, 01:46:04,VALID,1009.24,VALID,0.5,VALID,104,VALID,0,VALID,23.0705,VALID,33,VALID,0.498047,
2012-03-04, 01:47:04,VALID,1009.23,VALID,0,VALID,104,VALID,0,VALID,23.0918,VALID,327,VALID,0.377344,
2012-03-04, 01:48:04,VALID,1009.21,VALID,0,VALID,104,VALID,0,VALID,23.0918,VALID,329,VALID,0.325,
2012-03-04, 01:49:04,VALID,1009.22,VALID,0,VALID,104,VALID,0,VALID,23.0705,VALID,333,VALID,0.756641,
2012-03-04, 01:50:04,VALID,1009.25,VALID,0,VALID,104,VALID,0,VALID,23.0723,VALID,22,VALID,0.561328,
2012-03-04, 01:51:04,VALID,1009.24,VALID,0,VALID,104,VALID,0,VALID,23.0723,VALID,337,VALID,1.19883,
2012-03-04, 01:52:04,VALID,1009.25,VALID,0,VALID,104,VALID,0,VALID,23.0511,VALID,4,VALID,0.763281,
2012-03-04, 01:53:04,VALID,1009.26,VALID,0,VALID,104,VALID,0,VALID,23.0511,VALID,4,VALID,0.777344,
2012-03-04, 01:54:04,VALID,1009.28,VALID,0,VALID,104,VALID,0.112112,VALID,23.0705,VALID,3,VALID,0.780859,
2012-03-04, 01:55:04,VALID,1009.26,VALID,0,VALID,104,VALID,0.112112,VALID,23.0688,VALID,360,VALID,0.810156,
2012-03-04, 01:56:04,VALID,1009.29,VALID,0,VALID,104,VALID,0,VALID,23.0688,VALID,343,VALID,0.370313,
2012-03-04, 01:57:04,VALID,1009.3,VALID,0,VALID,104,VALID,0,VALID,23.0688,VALID,343,VALID,0.140625,
2012-03-04, 01:58:04,VALID,1009.32,VALID,0,VALID,104,VALID,0.112112,VALID,23.1095,VALID,343,VALID,0.269922,
2012-03-04, 01:59:04,VALID,1009.29,VALID,0,VALID,104,VALID,0,VALID,23.09,VALID,353,VALID,0.606641,
2012-03-04, 02:00:04,VALID,1009.28,VALID,0,VALID,104,VALID,0.112112,VALID,23.0883,VALID,359,VALID,0.901953,
2012-03-04, 02:01:04,VALID,1009.29,VALID,0,VALID,104,VALID,0,VALID,23.09,VALID,35,VALID,0.922266,
2012-03-04, 02:02:04,VALID,1009.29,VALID,0,VALID,104,VALID,0,VALID,23.09,VALID,32,VALID,0.334766,
2012-03-04, 02:03:04,VALID,1009.29,VALID,0,VALID,104,VALID,0,VALID,23.0688,VALID,11,VALID,0.659375,
2012-03-04, 02:04:04,VALID,1009.26,VALID,0,VALID,104,VALID,0.112112,VALID,23.0688,VALID,23,VALID,0.78125,
2012-03-04, 02:05:04,VALID,1009.25,VALID,0,VALID,104,VALID,0,VALID,23.09,VALID,18,VALID,0.61875,
2012-03-04, 02:06:04,VALID,1009.25,VALID,0,VALID,104,VALID,0,VALID,23.0493,VALID,24,VALID,0.64375,
2012-03-04, 02:07:04,VALID,1009.24,VALID,0,VALID,104,VALID,0,VALID,23.0705,VALID,345,VALID,0.767969,
2012-03-04, 02:08:04,VALID,1009.23,VALID,0,VALID,104,VALID,0,VALID,23.0705,VALID,25,VALID,0.920703,
2012-03-04, 02:09:04,VALID,1009.22,VALID,0,VALID,104,VALID,0,VALID,23.0723,VALID,22,VALID,0.555859,
2012-03-04, 02:10:04,VALID,1009.23,VALID,0.5,VALID,104,VALID,0,VALID,23.0528,VALID,23,VALID,0.24375,
2012-03-04, 02:11:04,VALID,1009.25,VALID,0,VALID,104,VALID,0,VALID,23.0528,VALID,22,VALID,0.442578,
2012-03-04, 02:12:04,VALID,1009.22,VALID,0,VALID,104,VALID,0,VALID,23.0316,VALID,360,VALID,0.399219,
2012-03-04, 02:13:04,VALID,1009.22,VALID,0,VALID,104,VALID,0,VALID,23.0316,VALID,22,VALID,0.124219,
2012-03-04, 02:14:04,VALID,1009.24,VALID,0,VALID,104,VALID,0,VALID,23.0316,VALID,21,VALID,0.467578,
2012-03-04, 02:15:04,VALID,1009.25,VALID,0,VALID,104,VALID,0,VALID,23.0333,VALID,7,VALID,0.646484,
2012-03-04, 02:16:04,VALID,1009.24,VALID,0,VALID,104,VALID,0,VALID,23.0333,VALID,2,VALID,0.378906,
2012-03-04, 02:17:04,VALID,1009.24,VALID,0,VALID,104,VALID,0,VALID,23.0333,VALID,22,VALID,0.578516,
2012-03-04, 02:18:04,VALID,1009.2,VALID,0,VALID,104,VALID,0,VALID,23.0333,VALID,39,VALID,0.451953,
2012-03-04, 02:19:04,VALID,1009.2,VALID,0.5,VALID,104,VALID,0,VALID,23.0121,VALID,41,VALID,0.370313,
2012-03-04, 02:20:04,VALID,1009.18,VALID,0,VALID,104,VALID,0,VALID,23.0121,VALID,39,VALID,0.421094,
2012-03-04, 02:21:04,VALID,1009.21,VALID,0,VALID,104,VALID,0,VALID,23.0138,VALID,39,VALID,0.270312,
2012-03-04, 02:22:04,VALID,1009.19,VALID,0,VALID,104,VALID,0,VALID,22.9926,VALID,11,VALID,0.552734,
2012-03-04, 02:23:04,VALID,1009.19,VALID,0,VALID,104,VALID,0,VALID,23.0138,VALID,2,VALID,0.741016,
2012-03-04, 02:24:04,VALID,1009.17,VALID,0,VALID,104,VALID,0,VALID,22.9943,VALID,9,VALID,0.501953,
2012-03-04, 02:25:04,VALID,1009.18,VALID,0,VALID,104,VALID,0,VALID,23.0138,VALID,351,VALID,0.5,
2012-03-04, 02:26:04,VALID,1009.19,VALID,0,VALID,104,VALID,0,VALID,22.9926,VALID,351,VALID,0.735156,
2012-03-04, 02:27:04,VALID,1009.18,VALID,0.5,VALID,104,VALID,0,VALID,23.0138,VALID,339,VALID,0.489062,
2012-03-04, 02:28:04,VALID,1009.18,VALID,0,VALID,104,VALID,0,VALID,22.9731,VALID,348,VALID,0.674609,
2012-03-04, 02:29:04,VALID,1009.18,VALID,0,VALID,104,VALID,0,VALID,22.9926,VALID,341,VALID,0.566406,
2012-03-04, 02:30:04,VALID,1009.15,VALID,0,VALID,104,VALID,0,VALID,22.9731,VALID,341,VALID,0.0382813,
2012-03-04, 02:31:04,VALID,1009.15,VALID,0,VALID,104,VALID,0,VALID,23.0138,VALID,356,VALID,0.540234,
2012-03-04, 02:32:04,VALID,1009.13,VALID,0,VALID,104,VALID,0,VALID,22.9731,VALID,30,VALID,0.171875,
2012-03-04, 02:33:04,VALID,1009.12,VALID,0,VALID,104,VALID,0,VALID,23.0138,VALID,343,VALID,0.787891,
2012-03-04, 02:34:04,VALID,1009.11,VALID,0,VALID,104,VALID,0,VALID,23.0138,VALID,342,VALID,0.0664063,
2012-03-04, 02:35:04,VALID,1009.09,VALID,0,VALID,104,VALID,0,VALID,23.0138,VALID,342,VALID,0.532031,
2012-03-04, 02:36:04,VALID,1009.08,VALID,0,VALID,104,VALID,0,VALID,22.9926,VALID,342,VALID,0.249219,
2012-03-04, 02:37:04,VALID,1009.06,VALID,0,VALID,104,VALID,0,VALID,23.0138,VALID,342,VALID,0.255078,
2012-03-04, 02:38:04,VALID,1009.08,VALID,0,VALID,104,VALID,0,VALID,23.0138,VALID,324,VALID,0.757422,
2012-03-04, 02:39:04,VALID,1009.09,VALID,0,VALID,104,VALID,0,VALID,22.9943,VALID,325,VALID,0.314453,
2012-03-04, 02:40:04,VALID,1009.06,VALID,0,VALID,104,VALID,0,VALID,23.0138,VALID,52,VALID,0.547656,
2012-03-04, 02:41:04,VALID,1009.05,VALID,0.5,VALID,104,VALID,0,VALID,22.9943,VALID,74,VALID,0.196094,
2012-03-04, 02:42:04,VALID,1009.05,VALID,0,VALID,104,VALID,0,VALID,22.9926,VALID,44,VALID,0.155078,
2012-03-04, 02:43:04,VALID,1009.07,VALID,0,VALID,104,VALID,0,VALID,22.9943,VALID,19,VALID,0.955469,
2012-03-04, 02:44:04,VALID,1009.06,VALID,0,VALID,104,VALID,0,VALID,23.0138,VALID,74,VALID,0.0804688,
2012-03-04, 02:45:04,VALID,1009.03,VALID,0,VALID,104,VALID,0,VALID,23.0333,VALID,58,VALID,0.475391,
2012-03-04, 02:46:04,VALID,1009.06,VALID,0,VALID,104,VALID,0,VALID,23.0138,VALID,49,VALID,0.458984,
2012-03-04, 02:47:04,VALID,1009.03,VALID,0,VALID,104,VALID,0,VALID,23.0138,VALID,340,VALID,0.768359,
2012-03-04, 02:48:04,VALID,1009.03,VALID,0,VALID,104,VALID,0,VALID,22.9926,VALID,38,VALID,0.796875,
2012-03-04, 02:49:04,VALID,1009.02,VALID,0,VALID,104,VALID,0,VALID,22.9926,VALID,23,VALID,0.298047,
2012-03-04, 02:50:04,VALID,1009.03,VALID,0,VALID,104,VALID,0,VALID,23.0138,VALID,355,VALID,1.38555,
2012-03-04, 02:51:04,VALID,1009.02,VALID,0,VALID,104,VALID,0,VALID,22.9943,VALID,346,VALID,0.452344,
2012-03-04, 02:52:04,VALID,1009.01,VALID,0,VALID,104,VALID,0,VALID,22.9943,VALID,26,VALID,0.334375,
2012-03-04, 02:53:04,VALID,1008.99,VALID,0,VALID,104,VALID,0,VALID,23.0138,VALID,358,VALID,0.679297,
2012-03-04, 02:54:04,VALID,1008.96,VALID,0,VALID,104,VALID,0,VALID,22.9943,VALID,41,VALID,1.00977,
2012-03-04, 02:55:04,VALID,1008.98,VALID,0,VALID,104,VALID,0,VALID,23.0138,VALID,16,VALID,0.595312,
2012-03-04, 02:56:04,VALID,1008.94,VALID,0,VALID,104,VALID,0,VALID,22.9926,VALID,353,VALID,1.00781,
2012-03-04, 02:57:04,VALID,1008.92,VALID,0,VALID,104,VALID,0,VALID,22.9926,VALID,299,VALID,0.806641,
2012-03-04, 02:58:04,VALID,1008.93,VALID,0,VALID,104,VALID,0,VALID,23.0138,VALID,349,VALID,0.172656,
2012-03-04, 02:59:04,VALID,1008.9,VALID,0,VALID,104,VALID,0,VALID,23.0138,VALID,53,VALID,0.531641,
2012-03-04, 03:00:04,VALID,1008.9,VALID,0,VALID,104,VALID,0,VALID,22.9926,VALID,40,VALID,0.265625,
2012-03-04, 03:01:04,VALID,1008.92,VALID,0,VALID,104,VALID,0,VALID,22.9731,VALID,360,VALID,0.381641,
2012-03-04, 03:02:04,VALID,1008.93,VALID,0,VALID,104,VALID,0,VALID,22.9943,VALID,360,VALID,0,
2012-03-04, 03:03:04,VALID,1008.9,VALID,0,VALID,104,VALID,0,VALID,22.9943,VALID,360,VALID,0.133594,
2012-03-04, 03:04:04,VALID,1008.91,VALID,0,VALID,104,VALID,0,VALID,22.9943,VALID,4,VALID,0.471094,
2012-03-04, 03:05:04,VALID,1008.88,VALID,0,VALID,104,VALID,0,VALID,22.9731,VALID,8,VALID,0.611328,
2012-03-04, 03:06:04,VALID,1008.9,VALID,0,VALID,104,VALID,0,VALID,22.9749,VALID,3,VALID,0.604688,
2012-03-04, 03:07:04,VALID,1008.88,VALID,0,VALID,104,VALID,0,VALID,22.9731,VALID,330,VALID,0.228125,
2012-03-04, 03:08:04,VALID,1008.88,VALID,0.5,VALID,104,VALID,0,VALID,22.9943,VALID,331,VALID,0.385156,
2012-03-04, 03:09:04,VALID,1008.88,VALID,0,VALID,104,VALID,0,VALID,22.9731,VALID,331,VALID,0.31875,
2012-03-04, 03:10:04,VALID,1008.88,VALID,0,VALID,104,VALID,0,VALID,22.9536,VALID,330,VALID,0.185547,
2012-03-04, 03:11:04,VALID,1008.89,VALID,0,VALID,104,VALID,0,VALID,22.9536,VALID,7,VALID,0.919141,
2012-03-04, 03:12:04,VALID,1008.86,VALID,0,VALID,104,VALID,0,VALID,22.9342,VALID,41,VALID,0.712109,
2012-03-04, 03:13:04,VALID,1008.89,VALID,0,VALID,104,VALID,0,VALID,22.9536,VALID,332,VALID,0.134375,
2012-03-04, 03:14:04,VALID,1008.92,VALID,0,VALID,104,VALID,0,VALID,22.9536,VALID,21,VALID,0.805469,
2012-03-04, 03:15:04,VALID,1008.94,VALID,0,VALID,104,VALID,0,VALID,22.9749,VALID,1,VALID,0.793359,
2012-03-04, 03:16:04,VALID,1008.96,VALID,0,VALID,104,VALID,0,VALID,22.9554,VALID,284,VALID,0.423047,
2012-03-04, 03:17:04,VALID,1008.96,VALID,0,VALID,104,VALID,0,VALID,22.9536,VALID,308,VALID,0.304688,
2012-03-04, 03:18:04,VALID,1008.98,VALID,0,VALID,104,VALID,0,VALID,22.9342,VALID,39,VALID,0.04375,
2012-03-04, 03:19:04,VALID,1009.01,VALID,0,VALID,104,VALID,0,VALID,22.9342,VALID,329,VALID,0.263672,
2012-03-04, 03:20:04,VALID,1008.99,VALID,0,VALID,104,VALID,0,VALID,22.9536,VALID,329,VALID,0.05625,
2012-03-04, 03:21:05,VALID,1009.01,VALID,0,VALID,104,VALID,0,VALID,22.9342,VALID,359,VALID,1.23281,
2012-03-04, 03:22:05,VALID,1008.99,VALID,0,VALID,104,VALID,0,VALID,22.9342,VALID,338,VALID,0.573828,
2012-03-04, 03:23:05,VALID,1009,VALID,0,VALID,104,VALID,0,VALID,22.9554,VALID,17,VALID,1.17852,
2012-03-04, 03:24:05,VALID,1009.01,VALID,0,VALID,104,VALID,0,VALID,22.9342,VALID,354,VALID,1.4043,
2012-03-04, 03:25:05,VALID,1008.99,VALID,0,VALID,104,VALID,0,VALID,22.9359,VALID,26,VALID,1.3875,
2012-03-04, 03:26:05,VALID,1009.01,VALID,0,VALID,104,VALID,0,VALID,22.9554,VALID,8,VALID,0.405859,
2012-03-04, 03:27:05,VALID,1008.98,VALID,0,VALID,104,VALID,0,VALID,22.9342,VALID,330,VALID,1.28711,
2012-03-04, 03:28:05,VALID,1008.97,VALID,0,VALID,104,VALID,0,VALID,22.9342,VALID,352,VALID,0.525391,
2012-03-04, 03:29:05,VALID,1008.95,VALID,0,VALID,104,VALID,0,VALID,22.9554,VALID,17,VALID,1.16562,
2012-03-04, 03:30:05,VALID,1008.93,VALID,0,VALID,104,VALID,0,VALID,22.9342,VALID,32,VALID,0.326562,
2012-03-04, 03:31:05,VALID,1008.97,VALID,0,VALID,104,VALID,0,VALID,22.9536,VALID,32,VALID,0.341797,
2012-03-04, 03:32:05,VALID,1008.96,VALID,0,VALID,104,VALID,0,VALID,22.9749,VALID,27,VALID,0.353906,
2012-03-04, 03:33:05,VALID,1008.97,VALID,0,VALID,104,VALID,0,VALID,22.9342,VALID,344,VALID,1.25859,
2012-03-04, 03:34:05,VALID,1008.96,VALID,0,VALID,104,VALID,0,VALID,22.9342,VALID,1,VALID,0.523438,
2012-03-04, 03:35:05,VALID,1008.99,VALID,0,VALID,104,VALID,0,VALID,22.9554,VALID,348,VALID,0.746484,
2012-03-04, 03:36:05,VALID,1008.97,VALID,0,VALID,104,VALID,0,VALID,22.9749,VALID,356,VALID,0.682031,
2012-03-04, 03:37:05,VALID,1008.95,VALID,0,VALID,104,VALID,0,VALID,22.9554,VALID,356,VALID,0.244922,
2012-03-04, 03:38:05,VALID,1008.98,VALID,0.5,VALID,104,VALID,0,VALID,22.9536,VALID,356,VALID,0.558594,
2012-03-04, 03:39:05,VALID,1008.94,VALID,0,VALID,104,VALID,0,VALID,22.9554,VALID,356,VALID,0.0230469,
2012-03-04, 03:40:05,VALID,1008.97,VALID,0,VALID,104,VALID,0,VALID,22.9554,VALID,357,VALID,0.545703,
2012-03-04, 03:41:05,VALID,1008.96,VALID,0,VALID,104,VALID,0,VALID,22.9554,VALID,356,VALID,0.591797,
2012-03-04, 03:42:05,VALID,1008.95,VALID,0,VALID,104,VALID,0,VALID,22.9554,VALID,355,VALID,0.200781,
2012-03-04, 03:43:05,VALID,1008.94,VALID,0,VALID,104,VALID,0,VALID,22.9147,VALID,353,VALID,0.420312,
2012-03-04, 03:44:05,VALID,1008.97,VALID,0,VALID,104,VALID,0,VALID,22.9342,VALID,343,VALID,0.331641,
2012-03-04, 03:45:05,VALID,1008.94,VALID,0,VALID,104,VALID,0,VALID,22.9342,VALID,360,VALID,0.296875,
2012-03-04, 03:46:05,VALID,1008.91,VALID,0,VALID,104,VALID,0,VALID,22.9147,VALID,360,VALID,0.0722656,
2012-03-04, 03:47:05,VALID,1008.94,VALID,0,VALID,104,VALID,0,VALID,22.9554,VALID,360,VALID,0.339844,
2012-03-04, 03:48:05,VALID,1008.95,VALID,0,VALID,104,VALID,0,VALID,22.9147,VALID,333,VALID,0.592969,
2012-03-04, 03:49:05,VALID,1008.94,VALID,0,VALID,104,VALID,0,VALID,22.9359,VALID,328,VALID,0.215625,
2012-03-04, 03:50:05,VALID,1008.9,VALID,0,VALID,104,VALID,0,VALID,22.9147,VALID,328,VALID,0.119531,
2012-03-04, 03:51:05,VALID,1008.9,VALID,0,VALID,104,VALID,0,VALID,22.9554,VALID,328,VALID,0.166016,
2012-03-04, 03:52:05,VALID,1008.9,VALID,0,VALID,104,VALID,0,VALID,22.9554,VALID,330,VALID,0.688281,
2012-03-04, 03:53:05,VALID,1008.93,VALID,0,VALID,104,VALID,0,VALID,22.9147,VALID,330,VALID,0.5,